Regional Weather Roundup
Issued by NWS Upton, NY

Current Version | Previous Version | Graphics & Text | Print | Product List | Glossary Off
Versions: 1 2 3 4 5 6 7 8 9 10 11 12 13 14 15 16 17 18 19 20 21 22 23 24 25 26 27 28 29 30 31 32 33 34 35 36 37 38 39 40 41 42 43 44 45 46 47 48 49 50

000
ASUS41 KOKX 270205
RWROKX

REGIONAL WEATHER ROUNDUP
NATIONAL WEATHER SERVICE NEW YORK NY
1000 PM EDT TUE AUG 26 2014

NOTE: "FAIR" INDICATES FEW OR NO CLOUDS BELOW 12,000 FEET WITH NO
SIGNIFICANT WEATHER AND/OR OBSTRUCTIONS TO VISIBILITY.

NYZ071-072-176-178-NJZ106-104-270300-
NEW YORK CITY METRO AREA


CITY           SKY/WX    TMP DP  RH WIND       PRES   REMARKS
CENTRAL PARK   CLEAR     74  61  63 CALM      30.14R
LAGUARDIA APRT PTCLDY    74  62  66 S13       30.11R
KENNEDY INTL   PTCLDY    73  64  73 S8        30.13R
NEWARK/LIBERTY PTCLDY    75  65  70 S7        30.11R
BRNX BOT. GARD   N/A     72  63  73 S1        30.13R
TETERBORO      CLEAR     75  63  66 S6        30.10R
$$

NYZ177-179-078>081-270300-
LONG ISLAND NEW YORK

CITY           SKY/WX    TMP DP  RH WIND       PRES   REMARKS
FARMINGDALE    CLEAR     71  63  75 S6        30.12R
ISLIP          PTCLDY    69  61  75 SW6       30.10R
SHIRLEY        CLEAR     70  62  76 S5        30.12S
WESTHAMPTON    CLEAR     68  62  81 SW3       30.13S
MONTAUK POINT    N/A     70  65  84 S5        30.12S
$$

NYZ052-065-067-270300-
HUDSON VALLEY

CITY           SKY/WX    TMP DP  RH WIND       PRES   REMARKS
WHITE PLAINS   CLEAR     69  63  81 CALM      30.12R
NEWBURGH       NOT AVBL
MONTGOMERY     CLEAR     66  60  81 CALM      30.08S
POUGHKEEPSIE   CLEAR     76  63  64 S7        30.07S
ALBANY         CLEAR     73  63  70 SW3       30.04S
$$

NJZ001-105-106-008-010-013-015-019>022-104-270300-
NEW JERSEY

CITY           SKY/WX    TMP DP  RH WIND       PRES   REMARKS
NEWARK/LIBERTY PTCLDY    75  65  70 S7        30.11R
TETERBORO      CLEAR     75  63  66 S6        30.10R
CALDWELL       CLEAR     74  62  66 CALM      30.11R
MORRISTOWN     CLEAR     68  64  88 CALM      30.11R
SOMERVILLE     CLEAR     69  65  86 CALM      30.09S
LINDEN         FAIR      78  65  64 SW3       30.13R
SUSSEX         CLEAR     68  64  87 CALM      30.10S
ANDOVER          N/A     66  64  93 CALM      30.12R
TRENTON        CLEAR     72  62  71 S8        30.12R
MILLVILLE      CLEAR     66  61  84 CALM      30.13S
ATLANTIC CITY  CLEAR     68  63  84 S3        30.13S
WRIGHTSTOWN    CLEAR     67  63  86 S5        30.11R
TOMS RIVER     CLEAR     64  61  88 CALM      30.13R
BELMAR         CLEAR     70  61  73 SW3       30.13R
$$

PAZ047>061-062-071-270300-
EASTERN PENNSYLVANIA

CITY           SKY/WX    TMP DP  RH WIND       PRES   REMARKS
PHILADELPHIA   PTCLDY    75  65  70 SW9       30.13R
ALLENTOWN      CLEAR     70  61  73 W3        30.11S
SCRANTON       CLEAR     71  60  68 CALM      30.11F
$$

CTZ002-004>006-009-010-012-RIZ004-006-007-MAZ004-011-015-270300-
SOUTHERN NEW ENGLAND
 IN CT

CITY           SKY/WX    TMP DP  RH WIND       PRES   REMARKS
BRADLEY INTL   PTCLDY    74  64  71 S8        30.07S
HARTFORD       CLEAR     71  63  75 S6        30.09R
DANBURY        CLEAR     69  64  84 CALM      30.13R
WTRBRY/OXFORD  CLEAR     68  61  77 CALM      30.15R
BRIDGEPORT     PTCLDY    74  66  76 SW9       30.11R
MERIDEN        CLEAR     70  63  78 S5        30.11R
NEW HAVEN      CLEAR     74  65  73 S6        30.11R
CHESTER        FAIR      68  64  88 SW7       30.12S
GROTON         CLEAR     67  64  90 SW6       30.11R
WILLIMANTIC    CLEAR     69  63  81 S3        30.11R

 IN RI

CITY           SKY/WX    TMP DP  RH WIND       PRES   REMARKS
PROVIDENCE     CLEAR     67  57  70 SW6       30.11R
BLOCK ISLAND   CLEAR     68  63  83 SW8       30.12S
WESTERLY       CLEAR     67  63  87 CALM      30.12R

 IN MA

CITY           SKY/WX    TMP DP  RH WIND       PRES   REMARKS
BOSTON         PTCLDY    72  62  71 SW12G21   30.06R
WORCESTER      CLEAR     69  64  84 SW8       30.11R
WESTFIELD      CLEAR     72  64  76 S7        30.07S
PROVINCETOWN   CLEAR     66  61  82 MISG      30.09S
NANTUCKET      CLEAR     63  61  93 S6        30.12R
$$

ANZ330-335-338-340-345-350-353-355-270300-
COASTAL MARINE OBSERVATIONS


STATION/POSITION TIME  SKY/WX   TEMP    WIND        PRES    VSBY  WAVE
                                AIR SEA DIR/SP/G                  HT/PER
                 (UTC)          (F)     (DEG/KT/KT) (MB)    (MI)  (FT/S)
NY HARB ENTRANCE NOT AVBL
4S FIRE IS       NOT AVBL
23SW MTP         0200                                 N/A           3/ 9
HUDSON CANYON    0200            72 72  130/  4/  6 1019.9          4/ 6
EXECUTION ROCKS  0200            74 74  200/ 10/ 14   N/A
WESTERN LI SOUND 0200            74     200/  8/ 10   N/A           0
CENTRAL LI SOUND 0100            72 74  210/ 12/ 14   N/A           1/ 3
EASTERN LI SOUND 0100            70 71  190/  6/  8   N/A
ROBBINS REEF     0200            74     180/  8/ 10   N/A
$$


>>>>>>>>>>>>>>>>>>>>>>>>>>>> KEY <<<<<<<<<<<<<<<<<<<<<<<<<<<
>                                                          <
>     SKY/WX - SKY CONDITION/PRESENT WEATHER               <
>     TMP    - TEMPERATURE IN FAHRENHEIT                   <
>     DP     - DEWPOINT IN FAHRENHEIT                      <
>     RH     - RELATIVE HUMIDITY IN PERCENT                <
>     WIND   - DIRECTION AND SPEED IN MPH                  <
>     PRES   - MEAN SEA LEVEL PRESSURE IN INCHES OF HG     <
>     WCI    - WIND CHILL INDEX                            <
>     VSB    - VISIBILITY IN MILES                         <
>     HX     - HEAT INDEX                                  <
>     TC     - TEMPERATURE IN CELSIUS                      <
>     VRB    - VARIABLE WIND DIRECTION                     <
>                                                          <
>>>>>>>>>>>>>>>>>>>>>>>>>>>> KEY <<<<<<<<<<<<<<<<<<<<<<<<<<<





USA.gov is the U.S. government's official web portal to all federal, state and local government web resources and services.